Location: Ahstedt
(52.2048°N, 10.1060°E)
Time: 05:42:48
(UTC+00:00)

ACS3 Solar Sail - Pass Details

Date: 18 January 2026
Orbit: 897 x 968 km, 97.2° (Epoch: 18 February)

Event Time Altitude Azimuth Distance (km) Brightness Sun altitude
Rises 03:32:26 0° 7° (N) 3,659 5.0 -34.0°
Reaches altitude 10° 03:35:20 10° 355° (N) 2,697 4.1 -33.5°
Enters shadow 03:35:21 10° 355° (N) 2,691 4.1 -33.5°
